sat.trackr.live / text

‹ back to catalog

NUSAT-53 (JANE GOODALL)

NORAD 68432 · 2026-067S

PAYLOAD ACTIVE UNKNOWN

§ Identity

Operator
Country
ARGN
Launch date
2026-03-30
Launch site
AFWTR
Launch vehicle
Mass (kg)
RCS (m²)

External: N2YO · Heavens-Above · Gunter

§ Orbital elements

Epoch: 2026-09-20T03:03:23.868576Z

Period
94.78 min
Inclination
97.4662°
Eccentricity
0.0004378
Mean motion
15.19323715 rev/d
Perigee alt
504.9 km
Apogee alt
510.9 km
Semi-major
6,886.0 km
B*
1.7513e-4
RAAN
220.4246°
Arg perigee
65.8433°
Mean anomaly
294.3259°
Rev number
2,635

§ Raw data

NUSAT-53 (JANE GOODALL)1 68432U 26067S   26263.12735959  .00003631  00000+0  17513-3 0  99962 68432  97.4662 220.4246 0004378  65.8433 294.3259 15.19323715 26357

JSON: /api/v1/satellites/68432 · /tle

For live sub-satellite position, see the globe view (requires WebGL).

§ Visibility from observer

Set your observer location to see the next 7 days of passes ≥ 10°. The values pass through the URL so the page stays shareable.

No JS? Fill the form by hand. The geolocation button needs JavaScript.